Stations météo

Publicité
Lorient Lan Bihoue, France (7205): Température de l'air & dewpoint: 10.08.2017 17:00:00 - 16.08.2017 17:00:00 (CEST)Lorient Lan Bihoue, France (7205): Température de l'air 5cm: 10.08.2017 17:00:00 - 16.08.2017 17:00:00 (CEST)Lorient Lan Bihoue, France (7205): Température de l'air -20cm: 10.08.2017 17:00:00 - 16.08.2017 17:00:00 (CEST)Lorient Lan Bihoue, France (7205): Vitesse du vent & gusts: 10.08.2017 17:00:00 - 16.08.2017 17:00:00 (CEST)Lorient Lan Bihoue, France (7205): Direction du vent: 10.08.2017 17:00:00 - 16.08.2017 17:00:00 (CEST)Lorient Lan Bihoue, France (7205): reduced air pressure: 10.08.2017 17:00:00 - 16.08.2017 17:00:00 (CEST)Lorient Lan Bihoue, France (7205): visibility: 10.08.2017 17:00:00 - 16.08.2017 17:00:00 (CEST)Lorient Lan Bihoue, France (7205): Ensoleillement: 10.08.2017 17:00:00 - 16.08.2017 17:00:00 (CEST)Lorient Lan Bihoue, France (7205): Quantités de précipitations: 10.08.2017 17:00:00 - 16.08.2017 17:00:00 (CEST)
Date & Time tt [°C] td [°C] tt 5cm [°C] tt -20cm [°C] ff [km/h] ff [knt] fx [km/h] fx [knt] dd ppp [hPa] vv [km] sd [min] rr [mm]
16.08.2017 17:00:00 21,1 14,7 25,0 20,1 21 11 31 17 SSW 1020,5 48 25 0,0
16.08.2017 16:00:00 20,8 14,0 25,0 19,8 19 10 34 18 SSW 1020,8 49 33 0,0
16.08.2017 15:00:00 21,1 14,3 25,6 19,5 21 11 35 19 SSW 1021,1 49 52 0,0
16.08.2017 14:00:00 21,4 13,1 25,3 19,3 20 11 29 16 SW 1021,4 54 58 0,0
16.08.2017 13:00:00 20,7 13,9 27,4 19,1 13 7 27 14 S 1020,9 58 60 0,0
16.08.2017 12:00:00 19,9 13,6 23,5 18,9 12 7 21 12 S 1021,3 60 51 0,0
16.08.2017 11:00:00 20,1 13,8 24,0 19,0 10 6 19 10 SSE 1021,5 60 60 0,0
16.08.2017 10:00:00 18,7 13,3 18,0 19,0 9 5 17 9 SE 1021,6 54 43 0,0
16.08.2017 09:00:00 16,7 14,0 13,8 19,1 7 4 11 6 ESE 1021,3 46 38 0,0
16.08.2017 08:00:00 13,7 12,8 12,5 19,2 5 3 9 5 E 1021,3 10 0 0,0
16.08.2017 07:00:00 13,2 12,1 12,1 19,3 5 3 9 5 ENE 1021,2 36 0 0,0
16.08.2017 06:00:00 13,0 11,9 11,9 19,5 5 3 10 5 NNE 1020,9 34 0 0,0
16.08.2017 05:00:00 13,0 11,9 12,0 19,6 7 4 9 5 NNE 1021,3 37 0 0,0
16.08.2017 04:00:00 12,8 11,7 10,9 19,7 4 2 10 6 N 1021,7 39 0 0,0
16.08.2017 03:00:00 12,7 11,3 11,5 19,9 9 5 11 6 NE 1021,8 36 0 0,0
16.08.2017 02:00:00 13,8 12,2 12,4 20,0 6 3 13 7 N 1022,0 45 0 0,0
16.08.2017 01:00:00 13,7 11,9 12,3 20,2 6 3 13 7 N 1021,7 47 0 0,0
16.08.2017 00:00:00 14,7 12,0 13,8 20,3 9 5 16 9 NNW 1021,6 57 0 0,0
15.08.2017 23:00:00 15,9 12,5 15,1 20,4 10 6 20 11 NW 1021,5 55 0 0,0
15.08.2017 22:00:00 17,8 12,7 16,7 20,5 12 6 19 10 NW 1020,9 60 0 0,0
15.08.2017 21:00:00 18,0 13,3 17,3 20,5 7 4 26 14 W 1020,0 48 31 0,0
15.08.2017 20:00:00 20,4 13,1 21,7 20,4 19 11 35 19 W 1019,4 44 60 0,0
15.08.2017 19:00:00 21,4 12,5 23,4 20,4 23 12 36 19 W 1019,0 39 43 0,0
15.08.2017 18:00:00 21,5 12,9 26,6 20,1 26 14 40 21 W 1019,2 30 58 0,0
15.08.2017 17:00:00 22,0 13,1 28,2 19,9 29 16 39 21 W 1019,0 34 60 0,0
15.08.2017 16:00:00 22,5 14,9 28,8 19,6 23 12 34 18 WSW 1018,8 38 60 0,0
15.08.2017 15:00:00 21,7 14,8 29,4 19,3 23 13 33 18 WSW 1018,7 44 60 0,0
15.08.2017 14:00:00 21,8 15,2 25,6 19,1 19 10 26 14 W 1018,6 46 60 0,0
15.08.2017 13:00:00 20,0 15,2 22,6 18,9 14 8 23 13 W 1018,5 51 20 0,0
15.08.2017 12:00:00 21,2 14,4 23,6 18,9 11 6 24 13 NW 1018,0 60 38 0,0
15.08.2017 11:00:00 19,8 14,6 23,3 18,9 11 6 22 12 NW 1017,4 60 54 0,0
15.08.2017 10:00:00 19,0 14,3 22,4 19,0 14 7 23 13 NNW 1016,9 37 60 0,0
15.08.2017 09:00:00 16,9 13,8 16,3 19,1 10 5 15 8 NNW 1016,5 20 58 0,0
15.08.2017 08:00:00 14,6 13,6 13,9 19,2 6 4 14 8 WNW 1016,4 16 13 0,0
15.08.2017 07:00:00 14,9 13,6 14,0 19,3 7 4 13 7 WNW 1015,3 18 0 0,0
15.08.2017 06:00:00 15,8 14,5 13,7 19,4 0 0 13 7 N 1014,7 24 0 0,0
15.08.2017 05:00:00 16,3 14,5 15,4 19,5 8 4 12 7 WNW 1014,2 27 0 0,0
15.08.2017 04:00:00 16,9 14,4 16,1 19,6 6 4 10 5 W 1013,9 38 0 0,0
15.08.2017 03:00:00 17,0 13,3 16,2 19,7 8 4 11 6 W 1013,7 49 0 0,0
15.08.2017 02:00:00 18,7 12,2 17,7 19,7 4 2 13 7 NNW 1013,7 60 0 0,0
15.08.2017 01:00:00 19,6 10,6 18,6 19,8 5 3 15 8 NW 1013,8 28 0 0,0
15.08.2017 00:00:00 19,2 12,9 17,8 19,9 4 2 8 5 WNW 1013,5 60 0 0,0
14.08.2017 23:00:00 19,9 14,3 19,1 19,9 7 4 9 5 NNW 1013,3 59 0 0,0
14.08.2017 22:00:00 20,0 14,6 18,7 19,9 6 3 8 4 WNW 1013,4 54 0 0,0
14.08.2017 21:00:00 20,9 14,8 20,7 19,8 5 3 7 4 WNW 1013,5 55 4 0,0
14.08.2017 20:00:00 22,6 13,9 23,2 19,7 4 2 10 6 S 1013,6 60 34 0,0
14.08.2017 19:00:00 23,0 13,7 25,2 19,5 8 5 18 10 W 1014,1 58 20 0,0
14.08.2017 18:00:00 24,1 14,5 29,5 19,2 11 6 21 12 WSW 1014,3 60 60 0,0
14.08.2017 17:00:00 25,7 12,9 27,9 19,0 13 7 26 14 SW 1014,4 60 57 0,0
14.08.2017 16:00:00 24,1 14,5 26,7 18,7 12 7 20 11 ESE 1013,9 60 6 0,0
14.08.2017 15:00:00 22,1 14,7 26,8 18,5 10 5 21 11 SW 1015,3 57 15 0,0
14.08.2017 14:00:00 22,2 14,1 26,1 18,2 14 8 24 13 S 1015,8 59 48 0,0
14.08.2017 13:00:00 21,8 13,7 25,3 18,1 19 10 29 16 SSE 1015,9 60 49 0,0
14.08.2017 12:00:00 21,0 14,2 21,1 18,0 13 7 24 13 ESE 1015,9 59 2 0,0
14.08.2017 11:00:00 18,9 13,5 20,6 18,0 14 8 20 11 E 1016,1 48 20 0,0
14.08.2017 10:00:00 17,5 12,8 18,5 18,0 13 7 19 11 E 1016,6 49 17 0,0
14.08.2017 09:00:00 16,0 12,5 14,0 18,1 12 6 18 10 E 1017,1 37 56 0,0
14.08.2017 08:00:00 13,3 11,9 10,0 18,3 9 5 11 6 NE 1017,4 40 0 0,0
14.08.2017 07:00:00 11,9 10,5 9,8 18,4 8 4 15 8 NE 1017,1 33 0 0,0
14.08.2017 06:00:00 11,5 10,2 10,0 18,5 7 4 11 6 ENE 1017,3 24 0 0,0
14.08.2017 05:00:00 11,9 10,6 10,6 18,7 10 5 13 7 ENE 1017,8 30 0 0,0
14.08.2017 04:00:00 12,0 10,7 10,6 18,8 9 5 16 9 ENE 1018,2 27 0 0,0
14.08.2017 03:00:00 12,4 11,1 10,5 19,0 11 6 14 8 ENE 1018,9 30 0 0,0
14.08.2017 02:00:00 12,6 11,2 9,7 19,2 9 5 14 7 ENE 1019,4 34 0 0,0
14.08.2017 01:00:00 12,6 11,2 9,2 19,3 10 5 15 8 NE 1019,7 37 0 0,0
14.08.2017 00:00:00 13,0 10,9 9,5 19,5 8 5 16 9 N 1020,2 43 0 0,0
13.08.2017 23:00:00 14,1 11,4 10,3 19,6 9 5 13 7 NNW 1020,5 49 0 0,0
13.08.2017 22:00:00 14,3 10,7 10,4 19,7 7 4 12 6 E 1020,6 51 4 0,0
13.08.2017 21:00:00 17,1 11,4 16,4 19,7 8 5 19 11 NW 1020,4 58 60 0,0
13.08.2017 20:00:00 18,2 11,7 20,2 19,6 14 8 24 13 W 1020,7 38 60 0,0
13.08.2017 19:00:00 18,5 11,1 21,0 19,5 16 9 27 14 W 1020,9 60 41 0,0
13.08.2017 18:00:00 19,2 10,2 25,0 19,2 17 9 26 14 WSW 1021,4 56 60 0,0
13.08.2017 17:00:00 19,3 10,3 26,4 18,9 16 9 27 14 WSW 1021,6 55 60 0,0
13.08.2017 16:00:00 19,6 10,6 27,3 18,6 18 10 26 14 WSW 1022,0 60 60 0,0
13.08.2017 15:00:00 19,3 10,0 27,7 18,2 13 7 27 15 WSW 1022,1 60 60 0,0
13.08.2017 14:00:00 19,8 10,2 27,8 17,9 13 7 24 13 SW 1022,6 60 60 0,0
13.08.2017 13:00:00 20,4 9,9 23,7 17,8 6 3 18 10 SE 1022,7 60 55 0,0
13.08.2017 12:00:00 18,9 10,2 21,4 17,7 11 6 18 10 NNE 1023,2 52 47 0,0
13.08.2017 11:00:00 16,0 9,2 18,4 17,7 8 4 15 8 NE 1023,5 60 17 0,0
13.08.2017 10:00:00 15,3 10,5 14,9 17,8 5 3 9 5 NNE 1023,4 59 3 0,0
13.08.2017 09:00:00 13,9 10,9 13,3 17,9 5 3 10 5 N 1023,2 58 0 0,0
13.08.2017 08:00:00 13,2 10,9 11,9 17,9 6 3 9 5 NNW 1022,9 56 0 0,0
13.08.2017 07:00:00 12,5 10,7 11,7 18,0 6 3 9 5 N 1022,8 59 0 0,0
13.08.2017 06:00:00 12,1 10,8 11,3 18,2 5 3 7 4 NE 1022,8 58 0 0,0
13.08.2017 05:00:00 11,5 10,4 6,0 18,3 3 2 11 6 N 1022,9 52 0 0,0
13.08.2017 04:00:00 10,1 9,2 5,8 18,5 5 3 8 4 N 1023,1 39 0 0,0
13.08.2017 03:00:00 10,6 9,4 6,3 18,7 0 0 8 5 N 1023,1 39 0 0,0
13.08.2017 02:00:00 11,0 9,6 7,8 18,8 5 3 10 5 N 1023,3 60 0 0,0
13.08.2017 01:00:00 12,0 9,9 9,6 19,0 6 3 13 7 N 1023,3 60 0 0,0
13.08.2017 00:00:00 13,7 11,2 12,3 19,1 7 4 16 8 N 1023,2 60 0 0,0
12.08.2017 23:00:00 14,9 12,2 13,9 19,2 9 5 16 8 N 1023,0 59 0 0,0
12.08.2017 22:00:00 16,0 12,4 14,7 19,2 8 5 19 10 NW 1022,5 60 2 0,0
12.08.2017 21:00:00 18,3 13,2 17,7 19,2 10 5 23 13 NW 1021,8 58 51 0,0
12.08.2017 20:00:00 20,6 14,3 21,3 19,1 15 8 26 14 NW 1021,6 59 18 0,0
12.08.2017 19:00:00 20,0 15,4 20,4 19,0 7 4 27 15 WNW 1021,4 49 2 0,0
12.08.2017 18:00:00 19,1 15,8 21,4 18,8 21 12 32 17 W 1021,5 52 27 0,0
12.08.2017 17:00:00 20,7 16,3 23,8 18,6 21 11 34 18 W 1021,6 37 34 0,0
12.08.2017 16:00:00 20,1 16,7 21,8 18,4 23 12 35 19 W 1021,7 39 11 0,0
12.08.2017 15:00:00 18,8 16,6 21,7 18,2 20 11 30 16 W 1021,7 38 4 0,0
12.08.2017 14:00:00 19,3 17,3 21,1 18,1 22 12 32 17 W 1021,6 28 4 0,0
12.08.2017 13:00:00 18,2 16,9 20,1 18,0 19 11 33 18 WSW 1021,8 19 0 0,0
12.08.2017 12:00:00 17,6 17,0 19,7 17,9 21 11 32 17 W 1021,6 8 4 0,0
12.08.2017 11:00:00 17,5 17,3 17,8 17,9 17 9 35 19 W 1021,3 4,0 0 0,0
12.08.2017 10:00:00 17,1 16,8 17,0 17,9 18 10 33 18 W 1021,0 0,9 0 0,0
12.08.2017 09:00:00 16,8 16,5 16,6 17,9 22 12 38 20 W 1020,6 1,9 0 0,0
12.08.2017 08:00:00 16,6 16,3 16,2 17,9 24 13 37 20 WSW 1020,5 1,6 0 0,2
12.08.2017 07:00:00 16,3 16,0 16,0 17,9 22 12 35 19 WSW 1020,5 2,4 0 0,6
12.08.2017 06:00:00 16,1 15,8 15,8 17,9 21 11 30 16 WSW 1020,6 1,6 0 0,6
12.08.2017 05:00:00 16,0 15,4 15,7 18,0 18 10 29 16 WSW 1021,2 1,6 0 0,2
12.08.2017 04:00:00 16,3 14,8 14,9 18,1 16 9 26 14 WSW 1021,6 33 0 0,0
12.08.2017 03:00:00 15,3 14,3 14,7 18,1 14 8 20 11 WSW 1021,9 19 0 0,0
12.08.2017 02:00:00 15,3 14,2 14,8 18,2 13 7 18 10 W 1022,4 20 0 0,0
12.08.2017 01:00:00 15,2 14,1 14,8 18,2 8 4 13 7 W 1022,8 18 0 0,0
12.08.2017 00:00:00 15,6 13,8 15,4 18,3 8 5 19 10 WSW 1023,3 28 0 0,0
11.08.2017 23:00:00 15,7 13,5 15,1 18,3 11 6 20 11 W 1023,5 28 0 0,0
11.08.2017 22:00:00 15,4 13,4 15,1 18,3 10 6 27 15 W 1023,6 30 0 0,0
11.08.2017 21:00:00 15,9 12,8 16,2 18,3 17 9 31 17 W 1023,5 44 0 0,0
11.08.2017 20:00:00 16,3 12,6 17,2 18,3 20 11 32 18 W 1023,6 46 0 0,0
11.08.2017 19:00:00 16,7 12,4 18,3 18,2 19 11 37 20 W 1023,7 45 5 0,0
11.08.2017 18:00:00 17,7 12,4 19,3 18,0 21 12 35 19 W 1023,8 59 0 0,0
11.08.2017 17:00:00 17,5 12,4 20,4 17,9 22 12 34 18 W 1024,0 55 0 0,0
11.08.2017 16:00:00 17,6 12,7 19,2 17,9 23 12 37 20 W 1024,0 55 0 0,0
11.08.2017 15:00:00 17,3 12,0 20,0 17,7 26 14 37 20 W 1024,0 54 0 0,0
11.08.2017 14:00:00 17,6 12,5 19,7 17,5 19 10 30 16 WSW 1024,2 41 0 0,0
11.08.2017 13:00:00 17,7 12,4 20,3 17,5 18 10 25 13 WSW 1024,3 41 8 0,0
11.08.2017 12:00:00 16,9 12,2 19,2 17,4 12 6 19 10 WSW 1024,7 52 5 0,0
11.08.2017 11:00:00 16,1 11,9 18,1 17,4 10 5 16 9 WNW 1024,7 48 0 0,0
11.08.2017 10:00:00 14,0 12,7 13,8 17,4 7 4 12 7 WNW 1024,9 18 0 0,0
11.08.2017 09:00:00 12,4 11,8 12,3 17,5 0 0 7 4 N 1024,7 12 5 0,0
11.08.2017 08:00:00 11,8 11,5 8,5 17,6 6 3 8 4 ESE 1024,5 7 23 0,0
11.08.2017 07:00:00 10,1 9,6 6,4 17,8 3 2 8 4 WNW 1024,3 4,8 0 0,0
11.08.2017 06:00:00 9,3 8,8 6,7 17,9 4 2 11 6 WNW 1024,1 0,3 0 0,0
11.08.2017 05:00:00 10,0 9,5 8,0 18,0 8 4 11 6 NW 1024,2 4,9 0 0,0
11.08.2017 04:00:00 10,0 9,2 8,1 18,2 5 3 11 6 WNW 1024,8 9 0 0,0
11.08.2017 03:00:00 10,3 9,2 7,2 18,3 6 3 9 5 WNW 1025,4 13 0 0,0
11.08.2017 02:00:00 11,8 10,0 9,2 18,4 3 1 15 8 W 1025,9 28 0 0,0
11.08.2017 01:00:00 12,4 10,1 11,0 18,6 6 4 15 8 NW 1026,3 47 0 0,0
11.08.2017 00:00:00 13,4 10,2 12,2 18,7 10 5 16 9 NW 1026,2 54 0 0,0
10.08.2017 23:00:00 14,1 9,9 12,5 18,7 6 3 21 11 N 1026,3 53 0 0,0
10.08.2017 22:00:00 16,1 9,3 14,9 18,8 14 7 23 12 N 1025,6 60 0 0,0
10.08.2017 21:00:00 17,6 8,2 17,0 18,8 12 6 26 14 N 1025,0 60 16 0,0
10.08.2017 20:00:00 19,5 7,2 19,8 18,7 17 9 30 16 N 1024,8 56 55 0,0
10.08.2017 19:00:00 20,8 8,1 21,8 18,5 19 11 37 20 NNW 1024,7 42 55 0,0
10.08.2017 18:00:00 20,5 8,5 22,6 18,4 18 10 40 21 N 1024,6 56 52 0,0
10.08.2017 17:00:00 20,8 8,8 21,8 18,3 23 12 43 23 N 1024,8 60 30 0,0

tt = Température de l'air
td = dewpoint
tt 5cm = Température de l'air 5cm
tt -20cm = Température de l'air -20cm
ff = Vitesse du vent
fx = gusts
dd = Direction du vent
ppp = reduced air pressure
vv = visibility
sd = Ensoleillement
rr = Quantités de précipitations

stations d'obs. à proximité